Notices

What's New in latest Release from April 7th, 2021:

- Updated Glossary, including Speed of Maximum Gust, and Total Hourly Precipitation

- Updated national and regional climate services offices contacts and prices information

- Addition of station inventory lists for 1981-2010, 1971-2000, and 1961-1990 Normals.

If you haven't already, please take our survey and provide feedback about our website: https://eccc.sondage-survey.ca/f/LanguageSelection.aspx?s=442ca660-fcf1-47c0-95a9-59707d6fd709

Hourly Data Report for June 25, 2003

TORONTO CITY
ONTARIO

43°40'00.000" N
79°24'00.000" W
112.50 m
6158355
71508
XTO

Download Data

Hourly Data (June 2003)
Hourly Data Report for June 25, 2003
TIME
LST
Temp Definition
°C
Dew Point Definition
°C
Rel Hum Definition
%
Precip. Amount Definition
mm

Wind Dir Definition
10's deg

Wind Spd Definition
km/h
Visibility Definition
km
Stn Press Definition
kPa
Hmdx Definition


Wind Chill Definition


Weather Definition


00:00 24.1 16.0 61   LegendMM LegendMM LegendMM 100.26 29   LegendNANA
01:00 23.4 15.5 61   LegendMM LegendMM LegendMM 100.24 28   LegendNANA
02:00 22.4 15.6 65   LegendMM LegendMM LegendMM 100.24 27   LegendNANA
03:00 21.2 15.8 71   LegendMM LegendMM LegendMM 100.23 26   LegendNANA
04:00 21.0 15.9 73   LegendMM LegendMM LegendMM 100.25 26   LegendNANA
05:00 22.4 15.9 67   LegendMM LegendMM LegendMM 100.27 27   LegendNANA
06:00 22.6 15.6 65   LegendMM LegendMM LegendMM 100.28 27   LegendNANA
07:00 23.2 15.8 63   LegendMM LegendMM LegendMM 100.27 28   LegendNANA
08:00 25.5 17.0 59   LegendMM LegendMM LegendMM 100.26 31   LegendNANA
09:00 27.2 17.1 54   LegendMM LegendMM LegendMM 100.25 33   LegendNANA
10:00 29.2 18.5 53   LegendMM LegendMM LegendMM 100.19 36   LegendNANA
11:00 29.9 18.6 51   LegendMM LegendMM LegendMM 100.16 36   LegendNANA
12:00 30.9 19.2 50   LegendMM LegendMM LegendMM 100.14 38   LegendNANA
13:00 31.8 19.0 47   LegendMM LegendMM LegendMM 100.06 39   LegendNANA
14:00
15:00 33.5 19.6 44   LegendMM LegendMM LegendMM 99.97 41   LegendNANA
16:00 32.7 19.8 47   LegendMM LegendMM LegendMM 99.94 40   LegendNANA
17:00 30.9 20.5 54   LegendMM LegendMM LegendMM 99.87 39   LegendNANA
18:00 29.0 19.7 57   LegendMM LegendMM LegendMM 99.86 36   LegendNANA
19:00 28.0 19.5 60   LegendMM LegendMM LegendMM 99.89 35   LegendNANA
20:00 27.0 19.5 64   LegendMM LegendMM LegendMM 99.88 34   LegendNANA
21:00 26.5 18.6 62   LegendMM LegendMM LegendMM 99.93 33   LegendNANA
22:00 25.5 18.0 63   LegendMM LegendMM LegendMM 99.95 32   LegendNANA
23:00 25.7 17.6 61   LegendMM LegendMM LegendMM 99.95 31   LegendNANA

Notes on Data Quality.

Legend

  • E = Estimated
  • M = Missing
  • NA = Not Available*
  • [empty] = Indicates an unobserved value
Date modified: